User: anonymous   Login
Location: Albuquerque Trailhead
(34.7934°N, 106.3736°W)
Time: 19:44:47
(UTC+00:00)
Language:

BREEZE-M DEB (TANK) - Orbit

View from above orbital plane
View from above orbital plane
View from above satellite
View from above satellite

Ground track
Ground track

The orbit data is extracted from the following two-line orbital elements,

1 33279U 08039B   21267.16965544  .00000009  00000-0  46212-4 0  9990
2 33279  45.9443 188.2011 4837155 163.5390 220.4903  5.71849230272309
Epoch (UTC): 24 September 2021 04:04:18
Eccentricity: 0.4837155
inclination: 45.9443°
perigee height: 441 km
apogee height: 13220 km
right ascension of ascending node: 188.2011°
argument of perigee: 163.5390°
revolutions per day: 5.71849230
mean anomaly at epoch: 220.4903°
orbit number at epoch: 27230

The dashed part of the orbit path shows where the satellite is in the earth's shadow,  

DLR